METEOR 2-5 DEB, 29292

Orbit data source: Space-Track

METEOR 2-5 DEB, 29292 is space debris in LEO originally from a launch on Wed, 31 Oct 1979 UTC launched from the Plesetsk Missile And Space Complex (PKMTR). Debris objects in space refer to the collection of defunct objects orbiting the Earth. Examples of debris include non-operational satellites, rocket bodies, and fragments generated from explosions, collisions, or faulty payload assembly.

Loading next visibility...
Identifier
29292, 1979-095R
Orbit
LEO
Country
Flag of CISCIS
Related business
Manufacturer
Unknown
Mission
Spacecraft
Bus & Motor
Unknown
Mass
Unknown
Launch date (UTC)
1979-10-31 (47 years ago)
Launch vehicle
Unknown
Launch site
Plesetsk Missile And Space Complex (PKMTR)
Object type
Payload
Rocket body
Debris
Shape & HBR
Unknown shape, 0.1 m
Radar Cross Section
Small (<0.1 m²)

Expand to show TLE details & history
Last TLE update: 1 week ago

TLE from 1 week ago
0 METEOR 2-5 DEB
1 29292U 79095R   26166.44862514  .00005968  00000-0  15902-2 0  9996
2 29292  81.1829  69.2439 0009761  84.6650 275.5655 14.48373020116296
Epoch: 2026-06-15T10:46Z
TLE epoch observation values (Epoch: 2026-06-15T10:46:01.212Z)
Latitude
-0.00002°
Longitude
4.00399°
Altitude
733.251 km
Speed
7.489 km/s
True Right ascension
04h 36m 58s
True Declination
0° 00' 00"
Sunlit
Object was in daylight at epoch
Visualization orbit readout
Latitude
Unknown
Longitude
Unknown
Altitude
Unknown
Speed
Unknown
Apparent Right ascension
Unknown
Apparent Declination
Unknown
Sunlit
N/A
Visualization observer readout
Local Sidereal Time
00:51:23
Azimuth
Unknown
Elevation
Unknown
Doppler factor
Unknown
Orbital elements
Apogee altitude
735.03 km
Perigee altitude
721.157 km
Semi-major axis
7,106.23 km
Eccentricity
0.00098
Inclination
81.1829°
RAAN
69.2439°
Arg. of periapsis
84.665°
True anomaly
275.45416°
Mean anomaly
275.5655°
Eccentric anomaly
275.50983°
Mean motion
3.62313 °/min
Orbital period
99.36 mins
BSTAR
0.0015902
Loading maneuver chart data...
Computing Atmospheric mass density...

Documentation

Showing up to 5 results
|